RH
100 99 98 97 96 97 98 98 91 80 71 64 84 86 91 95 96 97 95 96 98 100 97 96 87 83 81 80 90 97 96 93 100 100 99 87 95 94
94 94 88 81 96 98 100 99 98 97 81 80 89 88 92 93 98 100 100 98 100 99 98 96 90 86 84 83 84 97 98 100 100 99 98 97 96 96
82 90 90 90 90 92 98 99 98 99 95 88 94 94 97 100 100 100 100 100 100 100 96 91 89 89 89 89 90 93 97 93 98 95 96 99 99 94
88 87 86 87 90 98 96 96 100 100 100 99 99 97 99 100 100 100 100 100 99 100 95 90 91 92 89 89 93 99 100 100 98 96 99 97 98 93
85 85 84 87 94 97 99 99 99 99 99 100 99 99 99 100 100 100 100 100 99 99 98 99 99 94 88 89 93 99 94 91 92 95 100 97 95 90
66 69 72 80 90 94 97 94 99 98 99 100 100 100 100 100 100 100 100 100 100 100 100 99 99 94 92 92 94 93 93 91 91 98 99 94 89 85
68 69 70 74 82 89 96 97 98 99 98 100 100 100 100 100 99 99 100 100 100 100 100 99 97 93 94 92 91 93 88 83 79 83 88 83 64 79
72 73 74 81 88 87 87 86 90 99 98 100 100 100 99 100 100 100 100 100 98 98 99 95 88 85 84 84 78 64 56 55 57 60 60 53 53 84
73 76 86 85 90 92 89 87 91 94 98 98 99 100 100 99 99 100 100 99 92 87 91 82 82 76 69 65 59 52 45 47 52 80 94 96 77 92
76 79 92 93 94 92 95 96 97 91 90 91 91 93 99 99 100 99 99 99 94 86 83 78 74 70 70 58 48 67 64 58 66 96 97 89 79 91
77 79 89 94 91 88 92 88 90 90 88 90 90 91 95 97 99 100 100 99 90 83 79 67 72 70 76 71 78 85 80 65 61 70 95 97 96 80
80 80 78 82 88 97 100 94 86 80 79 81 80 81 91 96 99 100 100 98 88 87 80 66 69 74 81 77 90 89 87 71 66 77 93 95 99 95
88 88 81 74 78 90 99 99 92 84 78 72 72 71 82 88 87 90 96 97 92 83 75 70 71 79 82 90 89 96 84 84 74 94 97 97 99 93
94 93 91 82 80 85 96 99 96 92 82 77 70 70 68 68 68 72 75 88 94 92 73 58 56 62 71 89 86 85 85 84 74 89 95 96 93 94
99 98 99 91 81 76 85 98 96 92 86 82 81 70 64 65 64 62 60 67 71 70 63 57 57 51 60 75 89 92 97 79 74 74 85 90 90 89
100 100 100 95 88 73 63 85 88 81 80 80 82 82 65 62 67 67 75 76 86 76 70 67 63 61 62 64 64 80 86 82 77 73 72 71 70 68
97 99 99 96 93 84 79 79 82 82 82 82 87 91 92 87 86 68 74 84 98 99 96 79 77 74 69 66 68 74 74 69 61 68 77 76 72 66
100 97 94 93 93 90 80 73 75 80 82 87 93 95 95 98 98 93 81 90 95 94 96 98 84 85 80 61 57 81 82 80 73 67 69 88 88 68
100 100 99 99 99 94 93 89 87 82 74 74 87 96 97 99 98 99 99 97 95 95 98 90 99 97 83 73 67 65 92 76 76 93 94 94 82 70
99 99 99 94 92 94 94 94 97 89 71 67 81 88 92 98 100 98 97 94 93 95 98 100 99 97 88 78 79 76 61 92 92 95 96 81 64 51
99 100 99 99 98 94 95 99 99 91 82 80 81 79 79 96 98 97 97 94 93 94 93 95 82 78 81 75 74 72 56 48 63 65 68 84 89 82
100 100 100 100 100 100 100 100 100 98 95 92 89 87 85 85 96 95 94 95 93 93 92 89 91 85 93 94 83 80 81 63 58 55 58 58 67 84
100 100 100 99 100 100 100 100 100 100 99 97 94 90 88 99 99 96 92 92 92 93 97 96 100 100 100 97 95 93 88 87 76 70 58 53 52 48
Wind_Speed
7 7 7 8 10 10 10 10 8 6 5 8 4 8 11 13 15 15 13 14 15 14 11 8 8 9 10 11 8 9 1 15 25 30 25 21 17 13
8 7 7 6 5 5 4 6 8 10 5 5 5 9 11 12 13 13 13 14 16 13 10 9 8 8 8 6 5 1 10 20 23 20 18 19 15 13
8 6 5 5 4 4 5 5 6 8 11 11 13 15 12 13 12 15 14 14 13 13 11 7 6 6 4 4 4 2 5 6 11 13 14 15 13 11
7 6 4 3 3 3 3 6 6 6 7 10 11 12 12 11 13 14 14 13 12 10 8 6 5 5 4 5 6 10 11 11 11 12 13 13 11 9
8 7 4 2 3 3 4 6 6 6 8 8 7 9 9 11 13 14 14 14 13 11 7 6 7 7 6 7 9 10 11 11 12 13 14 16 11 9
6 5 4 3 3 4 5 6 9 9 8 9 10 10 9 9 14 17 15 14 13 13 14 11 8 7 6 6 8 10 10 12 14 16 16 12 10 10
5 4 3 5 6 5 5 5 7 7 7 7 11 7 7 8 13 14 17 14 13 15 15 13 11 10 9 9 9 9 9 9 10 12 12 11 11 11
4 2 2 3 5 7 7 4 6 6 6 9 11 10 12 9 10 14 15 10 5 16 15 15 13 13 11 11 10 10 10 10 10 9 9 9 10 11
2 2 3 4 6 6 6 7 9 7 8 12 11 9 9 11 12 12 16 15 9 7 18 10 15 13 13 12 12 11 10 11 11 10 10 10 11 12
2 1 2 4 7 6 5 7 8 10 9 11 13 14 14 13 12 13 14 15 11 9 16 7 11 11 12 11 13 11 10 10 12 11 11 10 11 11
3 2 3 4 7 8 7 8 8 8 8 8 8 9 10 10 10 12 12 14 6 9 17 7 8 9 8 8 10 12 11 11 11 12 12 11 11 12
1 2 5 6 7 5 8 7 8 6 6 7 6 6 5 4 7 9 11 15 6 5 14 13 10 8 4 9 9 12 11 12 11 11 13 14 13 10
5 6 5 5 7 10 10 11 7 5 6 6 5 4 4 4 4 5 8 13 14 5 6 18 11 11 5 3 9 14 14 11 11 11 12 14 13 11
8 5 6 5 6 9 10 10 8 6 5 6 5 6 6 5 4 4 5 9 12 12 7 14 6 14 11 5 4 13 16 15 14 14 17 17 17 14
12 8 9 6 7 8 10 8 5 6 6 5 5 8 7 7 5 4 5 6 8 9 11 14 15 10 12 6 5 7 9 16 17 17 18 19 19 16
10 10 9 8 9 9 9 7 7 8 8 6 7 7 8 7 6 5 5 5 5 6 10 12 12 11 11 11 8 7 9 5 14 18 18 18 19 19
7 7 7 10 11 9 8 7 8 9 8 8 8 8 7 7 7 7 7 7 5 5 7 9 9 10 11 11 9 11 10 11 10 11 15 16 17 17
8 6 8 11 11 10 9 9 10 10 10 9 9 9 9 8 8 8 9 9 8 7 6 7 8 6 7 9 15 11 12 12 14 14 13 11 13 14
13 13 14 15 15 12 11 11 11 10 12 13 13 11 11 10 10 9 9 10 10 9 9 9 8 9 7 3 4 16 13 13 13 13 14 13 9 7
16 18 17 15 14 15 15 16 14 13 13 14 14 14 14 13 11 12 12 12 12 11 11 10 12 14 9 4 3 5 12 14 14 13 12 11 12 13
20 21 20 19 17 16 15 15 16 17 16 15 15 15 16 15 15 15 14 14 13 12 13 15 19 14 14 12 6 6 11 11 15 14 11 9 6 8
17 18 19 19 18 16 16 16 16 17 17 17 16 16 16 17 16 16 16 16 16 17 16 14 14 14 16 13 11 9 7 9 14 16 17 16 7 5
13 14 14 15 15 15 15 15 16 18 18 18 18 18 17 16 15 15 15 17 17 17 17 14 13 14 17 16 15 15 13 13 12 15 22 23 23 24
Wind_Direction
185 211 218 230 242 245 250 253 249 271 284 273 257 275 262 262 258 248 232 203 197 212 233 251 265 282 296 307 333 349 337 187 177 162 160 156 156 156
204 205 226 235 233 242 250 253 245 253 258 283 272 286 283 272 253 234 229 219 216 225 236 246 266 278 284 280 283 23 88 121 139 147 151 152 156 154
195 189 198 207 221 229 237 242 249 245 256 271 272 276 271 260 244 231 230 226 227 227 229 244 267 258 250 257 269 222 173 148 137 145 150 153 152 156
183 185 187 224 222 231 257 257 251 259 267 268 263 266 258 248 240 231 225 225 225 226 224 232 223 227 233 246 196 162 152 148 156 155 162 160 157 157
170 165 171 222 250 276 266 282 281 279 259 262 267 262 258 251 230 224 221 218 218 221 215 207 206 210 231 233 209 189 185 177 169 163 171 169 171 156
171 178 180 220 244 258 271 277 280 270 275 273 273 260 249 249 235 222 216 214 210 205 186 188 199 207 211 213 202 207 200 195 180 178 186 192 175 165
185 203 220 244 246 249 256 264 274 284 290 292 271 257 244 227 225 227 222 214 208 201 206 208 211 206 199 212 215 209 205 203 193 190 193 194 187 176
205 223 259 248 255 253 255 265 268 285 299 281 274 262 263 252 238 225 212 192 218 224 216 219 217 216 216 219 216 213 211 216 208 204 197 195 189 188
225 237 245 260 257 266 283 292 285 280 269 267 271 274 280 278 264 237 222 215 202 209 203 209 218 223 224 225 222 216 213 214 210 195 194 190 187 195
236 330 291 283 275 282 299 296 289 280 275 274 271 270 267 272 268 261 252 228 221 216 199 199 214 215 230 220 223 209 206 204 200 192 197 198 195 191
33 343 282 273 276 287 275 281 282 276 275 277 285 285 283 271 258 245 223 194 195 208 200 199 200 191 211 214 209 198 201 206 207 208 206 203 206 201
266 277 312 283 281 268 266 268 266 272 279 283 292 303 296 271 240 225 235 206 173 203 211 195 189 190 190 216 200 190 204 209 213 216 212 202 207 198
218 224 233 293 291 269 256 252 262 287 284 280 288 298 283 275 270 240 231 226 216 211 207 195 197 196 185 153 200 204 203 205 201 191 189 198 205 207
227 239 254 266 262 259 253 253 262 276 279 271 279 277 274 275 273 256 234 225 224 228 228 212 213 203 189 164 172 206 211 210 205 201 200 207 211 221
252 261 254 262 266 260 256 254 244 247 255 263 268 266 266 263 256 252 241 230 225 222 214 216 219 223 208 193 170 184 188 220 216 214 217 220 227 235
245 246 246 248 259 258 261 248 236 244 251 262 256 253 257 249 239 230 233 219 212 213 211 216 218 219 214 216 208 193 200 194 212 218 223 227 233 237
229 240 238 247 254 255 250 243 242 245 247 248 241 235 235 236 232 227 224 222 217 211 210 214 212 215 223 225 222 222 215 218 221 214 220 234 241 244
221 224 232 244 248 255 253 250 242 241 243 240 236 232 227 226 223 227 221 220 224 223 211 211 211 221 248 254 237 227 219 220 223 222 224 234 250 250
231 239 250 256 258 259 255 251 251 245 249 247 245 239 234 229 222 224 225 224 227 226 221 220 203 212 216 230 250 220 213 218 216 216 221 224 243 251
238 247 252 258 261 261 258 256 253 250 248 248 244 242 240 229 224 226 226 225 227 227 225 218 215 217 208 229 203 245 221 216 211 215 219 235 252 258
241 247 255 260 260 258 262 255 249 250 249 248 248 247 244 232 229 230 230 229 227 226 231 229 238 237 231 241 250 245 251 235 223 218 220 219 234 265
252 254 259 263 262 261 260 257 257 253 248 248 247 248 249 243 233 231 230 225 226 227 230 240 245 228 221 220 235 242 249 249 236 236 234 231 202 214
256 258 260 261 261 260 259 258 258 258 257 254 253 253 251 241 240 237 236 232 230 229 225 225 220 219 223 228 229 242 241 244 242 243 249 248 248 248